| time (UTC) | temp F | wind direction | speed knots | gust knots | rain 1hr in | rain 24hr in | rain mn in | humidity % | barometer mb |
| 20260505210037 | 83 | 209 | 2.6 | 7.8 | 0.00 | 0.00 | 0.00 | 29 | |
| 20260505205057 | 83 | 204 | 3.5 | 8.7 | 0.00 | 0.00 | 0.00 | 29 | |
| 20260505204018 | 84 | 193 | 2.6 | 7.0 | 0.00 | 0.00 | 0.00 | 29 | |
| 20260505203018 | 84 | 192 | 2.6 | 7.0 | 0.00 | 0.00 | 0.00 | 29 | |
| 20260505202017 | 85 | 198 | 1.7 | 7.0 | 0.00 | 0.00 | 0.00 | 29 | |
| 20260505201017 | 85 | 198 | 2.6 | 13.0 | 0.00 | 0.00 | 0.00 | 30 | |
| 20260505200038 | 85 | 196 | 1.7 | 5.2 | 0.00 | 0.00 | 0.00 | 29 | |
| 20260505195017 | 84 | 207 | 3.5 | 9.6 | 0.00 | 0.00 | 0.00 | 29 | |
| 20260505194017 | 84 | 196 | 1.7 | 6.1 | 0.00 | 0.00 | 0.00 | 29 | |
| 20260505193017 | 83 | 193 | 3.5 | 11.3 | 0.00 | 0.00 | 0.00 | 30 | |
| 20260505192018 | 84 | 211 | 2.6 | 5.2 | 0.00 | 0.00 | 0.00 | 31 | |
| 20260505191018 | 83 | 193 | 2.6 | 5.2 | 0.00 | 0.00 | 0.00 | 31 | |
| 20260505190017 | 83 | 211 | 3.5 | 9.6 | 0.00 | 0.00 | 0.00 | 31 | |
| 20260505185016 | 83 | 197 | 1.7 | 7.0 | 0.00 | 0.00 | 0.00 | 32 | |
| 20260505184038 | 83 | 211 | 1.7 | 6.1 | 0.00 | 0.00 | 0.00 | 33 | |
| 20260505183017 | 82 | 201 | 2.6 | 7.8 | 0.00 | 0.00 | 0.00 | 34 | |
| 20260505182017 | 82 | 200 | 3.5 | 8.7 | 0.00 | 0.00 | 0.00 | 35 | |
| 20260505181036 | 82 | 205 | 3.5 | 10.4 | 0.00 | 0.00 | 0.00 | 33 | |
| 20260505180038 | 82 | 203 | 1.7 | 5.2 | 0.00 | 0.00 | 0.00 | 35 | |
| 20260505175018 | 82 | 206 | 1.7 | 4.3 | 0.00 | 0.00 | 0.00 | 36 | |
| 20260505174017 | 81 | 208 | 2.6 | 6.1 | 0.00 | 0.00 | 0.00 | 37 | |
| 20260505173038 | 81 | 200 | 2.6 | 5.2 | 0.00 | 0.00 | 0.00 | 38 | |
| 20260505172038 | 81 | 194 | 1.7 | 6.1 | 0.00 | 0.00 | 0.00 | 39 | |
| 20260505171017 | 81 | 195 | 1.7 | 4.3 | 0.00 | 0.00 | 0.00 | 39 | |
| 20260505170017 | 80 | 208 | 1.7 | 6.1 | 0.00 | 0.00 | 0.00 | 39 | |
| 20260505165018 | 80 | 206 | 2.6 | 7.8 | 0.00 | 0.00 | 0.00 | 39 | |
| 20260505164018 | 80 | 203 | 2.6 | 6.1 | 0.00 | 0.00 | 0.00 | 40 | |
| 20260505163037 | 79 | 201 | 1.7 | 5.2 | 0.00 | 0.00 | 0.00 | 40 | |
| 20260505162016 | 80 | 184 | 1.7 | 3.5 | 0.00 | 0.00 | 0.00 | 40 | |
| 20260505161018 | 79 | 203 | 2.6 | 6.1 | 0.00 | 0.00 | 0.00 | 41 | |
| 20260505153018 | 78 | 208 | 0.9 | 3.5 | 0.00 | 0.00 | 0.00 | 42 | |
| 20260505152017 | 78 | 205 | 0.9 | 4.3 | 0.00 | 0.00 | 0.00 | 42 | |
| 20260505151017 | 78 | 205 | 0.9 | 4.3 | 0.00 | 0.00 | 0.00 | 44 | |
| 20260505125037 | 69 | 192 | 1.7 | 3.5 | 0.00 | 0.00 | 0.00 | 55 | |
| 20260505124017 | 68 | 200 | 0.9 | 3.5 | 0.00 | 0.00 | 0.00 | 57 | |
| 20260505123019 | 67 | 186 | 1.7 | 4.3 | 0.00 | 0.00 | 0.00 | 59 | |
| 20260505122018 | 65 | 199 | 0.9 | 2.6 | 0.00 | 0.00 | 0.00 | 62 | |
| 20260505121017 | 62 | 197 | 0.9 | 4.3 | 0.00 | 0.00 | 0.00 | 70 | |
| 20260505120017 | 59 | 193 | 0.0 | 0.9 | 0.00 | 0.00 | 0.00 | 80 | |
| 20260505115018 | 58 | 0.0 | 0.0 | 0.00 | 0.00 | 0.00 | 81 | ||
| 20260505114017 | 58 | 0.0 | 0.0 | 0.00 | 0.00 | 0.00 | 81 | ||
| 20260505113017 | 58 | 218 | 0.9 | 1.7 | 0.00 | 0.00 | 0.00 | 81 | |
| 20260505112036 | 58 | 193 | 0.0 | 0.9 | 0.00 | 0.00 | 0.00 | 77 | |
| 20260505111017 | 59 | 198 | 0.0 | 1.7 | 0.00 | 0.00 | 0.00 | 75 | |
| 20260505102017 | 59 | 190 | 0.0 | 3.5 | 0.00 | 0.00 | 0.00 | 68 | |
| 20260505101037 | 58 | 203 | 0.9 | 4.3 | 0.00 | 0.00 | 0.00 | 69 | |
| 20260505100018 | 58 | 188 | 0.9 | 2.6 | 0.00 | 0.00 | 0.00 | 70 | |
| 20260505095017 | 53 | 255 | 0.0 | 2.6 | 0.00 | 0.00 | 0.00 | 81 | |
| 20260505094017 | 52 | 195 | 0.0 | 0.9 | 0.00 | 0.00 | 0.00 | 83 | |
| 20260505093036 | 51 | 0.0 | 0.0 | 0.00 | 0.00 | 0.00 | 83 | ||
| 20260505092038 | 52 | 193 | 0.0 | 0.9 | 0.00 | 0.00 | 0.00 | 83 | |
| 20260505091017 | 52 | 0.0 | 0.0 | 0.00 | 0.00 | 0.00 | 82 | ||
| 20260505090037 | 52 | 0.0 | 0.0 | 0.00 | 0.00 | 0.00 | 81 | ||
| 20260505085016 | 53 | 197 | 0.0 | 0.9 | 0.00 | 0.00 | 0.00 | 80 | |
| 20260505084017 | 53 | 0.0 | 0.0 | 0.00 | 0.00 | 0.00 | 79 | ||
| 20260505083017 | 53 | 0.0 | 0.0 | 0.00 | 0.00 | 0.00 | 78 | ||
| 20260505082016 | 54 | 0.0 | 0.0 | 0.00 | 0.00 | 0.00 | 76 | ||
| 20260505081018 | 55 | 204 | 0.0 | 0.9 | 0.00 | 0.00 | 0.00 | 74 | |
| 20260505080017 | 56 | 205 | 0.0 | 1.7 | 0.00 | 0.00 | 0.00 | 73 | |
| 20260505075037 | 57 | 196 | 0.0 | 0.9 | 0.00 | 0.00 | 0.00 | 71 | |
| 20260505074016 | 57 | 193 | 0.0 | 0.9 | 0.00 | 0.00 | 0.00 | 69 | |
| 20260505073018 | 58 | 199 | 0.0 | 0.9 | 0.00 | 0.00 | 0.00 | 68 | |
| 20260505072017 | 59 | 194 | 0.0 | 1.7 | 0.00 | 0.00 | 0.00 | 66 | |
| 20260505071017 | 59 | 196 | 0.9 | 1.7 | 0.00 | 0.00 | 0.00 | 66 | |
| 20260505070016 | 59 | 199 | 0.9 | 1.7 | 0.00 | 0.00 | 0.00 | 66 | |
| 20260505065018 | 59 | 185 | 0.9 | 2.6 | 0.00 | 0.00 | 0.00 | 65 | |
| 20260505064017 | 58 | 204 | 0.9 | 1.7 | 0.00 | 0.00 | 0.00 | 66 | |
| 20260505063016 | 58 | 192 | 0.0 | 1.7 | 0.00 | 0.00 | 0.00 | 68 | |
| 20260505062016 | 56 | 191 | 0.0 | 0.9 | 0.00 | 0.00 | 0.00 | 71 | |
| 20260505061017 | 55 | 197 | 0.0 | 1.7 | 0.00 | 0.00 | 0.00 | 72 | |
| 20260505060037 | 54 | 0.0 | 0.0 | 0.00 | 0.00 | 0.00 | 73 | ||
| 20260505055017 | 54 | 0.0 | 0.0 | 0.00 | 0.00 | 0.00 | 73 | ||
| 20260505054018 | 54 | 0.0 | 0.0 | 0.00 | 0.00 | 0.00 | 72 | ||
| 20260505053017 | 54 | 0.0 | 0.0 | 0.00 | 0.00 | 0.00 | 72 | ||
| 20260505052018 | 55 | 0.0 | 0.0 | 0.00 | 0.00 | 0.00 | 71 | ||
| 20260505051016 | 55 | 0.0 | 0.0 | 0.00 | 0.00 | 0.00 | 70 | ||
| 20260505041017 | 57 | 198 | 0.0 | 0.0 | 0.00 | 0.00 | 0.00 | 64 | |
| 20260505040038 | 57 | 0.0 | 0.0 | 0.00 | 0.00 | 0.00 | 64 | ||
| 20260505035016 | 58 | 0.0 | 0.0 | 0.00 | 0.00 | 0.00 | 63 | ||
| 20260505034018 | 58 | 0.0 | 0.0 | 0.00 | 0.00 | 0.00 | 62 | ||
| 20260505033017 | 58 | 0.0 | 0.0 | 0.00 | 0.00 | 0.00 | 60 | ||
| 20260505032016 | 59 | 194 | 0.0 | 0.9 | 0.00 | 0.00 | 0.00 | 60 | |
| 20260505031018 | 59 | 0.0 | 0.0 | 0.00 | 0.00 | 0.00 | 59 | ||
| 20260505030017 | 59 | 193 | 0.0 | 0.9 | 0.00 | 0.00 | 0.00 | 59 | |
| 20260505025037 | 59 | 196 | 0.0 | 0.0 | 0.00 | 0.00 | 0.00 | 57 | |
| 20260505024016 | 59 | 200 | 0.0 | 1.7 | 0.00 | 0.00 | 0.00 | 58 | |
| 20260505023018 | 58 | 195 | 0.0 | 0.9 | 0.00 | 0.00 | 0.00 | 59 | |
| 20260505022017 | 58 | 0.0 | 0.0 | 0.00 | 0.00 | 0.00 | 58 | ||
| 20260505021017 | 58 | 193 | 0.0 | 0.9 | 0.00 | 0.00 | 0.00 | 57 | |
| 20260505020016 | 59 | 0.0 | 0.0 | 0.00 | 0.00 | 0.00 | 56 | ||
| 20260505015018 | 59 | 0.0 | 0.0 | 0.00 | 0.00 | 0.00 | 55 | ||
| 20260505014017 | 60 | 0.0 | 0.0 | 0.00 | 0.00 | 0.00 | 54 | ||
| 20260505013036 | 60 | 0.0 | 0.0 | 0.00 | 0.00 | 0.00 | 52 | ||
| 20260505012016 | 61 | 0.0 | 0.0 | 0.00 | 0.00 | 0.00 | 51 | ||
| 20260505011038 | 62 | 0.0 | 0.0 | 0.00 | 0.00 | 0.00 | 49 | ||
| 20260505010037 | 62 | 0.0 | 0.0 | 0.00 | 0.00 | 0.00 | 48 | ||
| 20260505005017 | 63 | 0.0 | 0.0 | 0.00 | 0.00 | 0.00 | 47 | ||
| 20260505004018 | 64 | 0.0 | 0.0 | 0.00 | 0.00 | 0.00 | 45 | ||
| 20260505003017 | 64 | 0.0 | 0.0 | 0.00 | 0.00 | 0.00 | 44 | ||
| 20260505002016 | 65 | 0.0 | 0.0 | 0.00 | 0.00 | 0.00 | 43 | ||
| 20260505001016 | 66 | 198 | 0.0 | 0.0 | 0.00 | 0.00 | 0.00 | 41 | |
| 20260505000118 | 67 | 200 | 0.0 | 1.7 | 0.00 | 0.00 | 0.00 | 39 | |
| 20260504235018 | 68 | 200 | 0.9 | 3.5 | 0.00 | 0.00 | 0.00 | 39 | |
| 20260504234016 | 69 | 201 | 0.0 | 2.6 | 0.00 | 0.00 | 0.00 | 37 | |
| 20260504233016 | 69 | 197 | 0.9 | 2.6 | 0.00 | 0.00 | 0.00 | 36 | |
| 20260504232017 | 69 | 199 | 0.9 | 2.6 | 0.00 | 0.00 | 0.00 | 36 | |
| 20260504231017 | 70 | 198 | 0.9 | 3.5 | 0.00 | 0.00 | 0.00 | 35 | |
| 20260504230016 | 71 | 202 | 0.9 | 2.6 | 0.00 | 0.00 | 0.00 | 35 | |
| 20260504225016 | 71 | 200 | 1.7 | 5.2 | 0.00 | 0.00 | 0.00 | 35 | |
| 20260504224017 | 71 | 205 | 1.7 | 6.1 | 0.00 | 0.00 | 0.00 | 34 | |
| 20260504223037 | 72 | 200 | 1.7 | 7.8 | 0.00 | 0.00 | 0.00 | 34 | |
| 20260504222016 | 72 | 190 | 0.9 | 4.3 | 0.00 | 0.00 | 0.00 | 34 | |
| 20260504221016 | 73 | 204 | 0.9 | 1.7 | 0.00 | 0.00 | 0.00 | 33 | |
| 20260504220017 | 73 | 199 | 0.9 | 3.5 | 0.00 | 0.00 | 0.00 | 33 | |
| 20260504215017 | 73 | 201 | 1.7 | 4.3 | 0.00 | 0.00 | 0.00 | 33 | |
| 20260504213017 | 73 | 191 | 0.9 | 4.3 | 0.00 | 0.00 | 0.00 | 32 | |
| 20260504212017 | 73 | 204 | 2.6 | 8.7 | 0.00 | 0.00 | 0.00 | 32 | |
| 20260504211016 | 74 | 205 | 1.7 | 4.3 | 0.00 | 0.00 | 0.00 | 31 |